RH
96 100 100 100 100 100 100 100 100 100 98 99 84 71 65 64 66 65 58 45 42 40 33 30 32 35 34 37 39 43 53 57
91 100 100 100 100 100 100 100 100 100 100 95 97 86 74 74 69 67 56 50 42 55 51 41 34 37 36 31 30 32 33 40
50 51 65 97 100 100 100 99 94 93 98 100 99 86 77 74 71 77 60 59 60 52 51 48 42 34 38 36 29 28 27 29
65 80 54 40 45 58 80 96 100 100 100 100 100 100 92 84 80 81 60 53 50 55 55 50 44 37 36 29 24 23 25 28
100 100 100 100 99 100 100 100 100 100 98 93 88 81 70 63 63 64 59 60 57 54 45 45 46 42 39 32 24 20 20 24
77 65 57 66 72 70 75 82 80 75 68 82 93 92 85 77 75 70 62 53 51 55 52 47 48 41 33 22 27 24 19 18
63 76 84 82 71 62 59 66 72 65 57 54 60 57 59 60 61 62 63 55 48 46 50 51 48 48 38 32 26 18 15 14
84 76 70 67 65 56 51 55 55 51 52 57 56 52 54 56 58 51 47 48 47 43 49 51 56 46 36 26 17 15 14 14
64 54 54 55 57 59 51 54 50 55 56 56 60 53 47 45 49 46 42 47 44 50 61 59 51 39 27 23 19 15 15 14
54 54 63 62 59 65 61 55 54 52 50 50 51 54 52 49 48 46 48 43 58 72 53 37 27 29 26 21 20 18 16 14
48 58 60 65 64 62 59 59 53 50 48 46 43 47 50 52 47 43 47 55 58 49 45 41 31 26 25 24 22 20 20 18
44 48 52 54 56 62 58 50 49 46 45 44 44 44 41 45 45 52 51 55 67 69 45 34 28 25 24 24 24 25 21 16
38 43 48 48 41 32 28 29 33 32 28 25 27 33 41 43 47 67 84 90 75 59 41 34 30 31 35 29 29 30 24 26
20 22 20 21 24 26 25 26 29 30 30 31 35 45 73 88 94 100 100 88 67 56 43 38 34 38 42 41 46 52 48 52
19 21 25 27 27 28 30 37 47 55 65 80 91 97 100 100 100 100 92 71 58 56 45 39 37 39 51 54 56 69 69 53
28 31 30 30 36 47 60 74 82 93 98 100 100 100 100 100 100 88 76 63 52 48 44 41 38 41 57 60 51 62 86 91
34 36 39 56 71 89 97 99 100 100 100 100 100 100 100 99 89 74 69 56 53 48 44 42 40 37 40 56 59 75 94 93
52 68 83 97 100 100 100 100 100 100 95 89 74 71 66 56 58 53 49 47 48 46 42 40 41 41 39 50 63 84 100 90
100 100 100 100 100 98 85 73 64 66 65 61 55 53 50 48 47 46 44 44 44 44 46 43 40 42 40 46 60 78 100 100
Wind_Speed
64 69 71 73 75 77 77 77 75 74 73 73 71 72 71 70 71 70 71 71 69 67 66 64 66 68 75 83 83 83 81 81
66 75 76 76 77 77 77 77 78 76 78 77 78 79 77 78 79 80 79 78 76 75 74 72 71 71 72 78 85 90 88 87
72 77 76 78 79 82 80 80 82 82 83 84 84 85 86 87 86 85 86 84 82 82 82 81 81 76 77 77 78 82 89 94
77 81 81 80 82 84 85 84 84 86 87 86 88 89 90 89 90 90 94 91 92 90 90 87 85 83 82 82 79 79 79 89
83 84 85 84 86 89 91 93 93 94 96 97 96 97 98 98 97 96 97 98 96 94 94 90 87 87 84 81 78 74 78 85
92 92 92 96 98 99 99 99 99 99 100 100 100 99 100 100 101 100 100 102 101 97 97 93 91 89 84 77 75 77 78 81
92 94 98 98 98 99 100 102 103 103 104 104 104 106 106 105 103 102 99 97 98 98 93 90 87 84 81 75 73 72 71 74
98 100 101 100 101 103 104 103 103 104 106 105 105 105 104 103 103 102 101 99 95 89 86 82 80 77 73 72 71 67 67 69
104 104 99 104 104 105 102 102 101 101 102 103 104 104 103 102 100 98 91 82 77 78 75 75 72 69 68 67 64 61 61 63
97 94 94 96 95 96 95 95 94 94 97 97 95 93 93 89 83 78 71 70 68 68 68 65 62 60 60 58 58 58 57 56
85 86 86 87 87 86 85 85 84 84 85 83 80 78 75 72 68 66 66 64 65 61 57 54 54 54 54 54 53 50 50 53
76 75 76 78 79 78 78 76 75 74 72 72 71 70 68 65 62 61 59 51 51 50 48 47 47 46 46 47 44 47 50 51
68 67 68 69 69 69 68 66 65 64 62 59 55 51 51 49 46 42 41 44 45 44 44 43 40 42 45 44 41 44 46 40
56 55 54 52 49 48 49 47 45 43 42 41 40 38 35 34 34 36 40 43 43 41 42 41 41 44 44 43 41 42 43 40
44 41 39 38 38 37 35 34 33 32 31 29 28 29 29 33 37 40 44 46 42 39 41 40 39 41 43 42 40 41 40 40
34 33 32 30 27 26 25 25 26 25 25 26 28 30 34 40 42 46 49 48 42 40 40 40 37 36 43 44 42 37 40 37
29 27 23 19 16 16 18 19 22 25 28 31 35 39 44 47 50 52 53 51 47 43 43 41 38 36 39 44 41 37 41 39
15 10 8 10 14 18 22 25 28 32 37 41 44 48 51 54 57 55 53 51 49 50 48 45 40 39 37 42 42 38 43 41
2 5 10 14 19 24 28 32 36 40 45 49 53 55 57 58 59 59 59 58 56 55 54 50 46 41 39 39 44 43 42 45
Wind_Direction
279 278 276 275 275 277 276 276 277 279 280 278 277 279 281 281 284 284 284 287 285 287 287 277 273 266 261 258 256 254 250 248
276 274 273 273 273 275 276 276 278 278 277 276 275 277 279 281 282 283 283 285 287 285 286 286 282 276 270 262 257 255 255 251
277 274 273 274 274 275 275 276 277 277 276 275 276 276 280 281 282 282 284 286 285 285 285 286 285 281 276 274 264 256 253 251
282 280 277 278 277 277 277 277 275 275 275 275 276 278 278 279 280 282 284 285 287 288 288 287 284 282 280 275 270 262 258 253
278 277 275 274 272 272 272 273 275 276 276 276 276 277 278 279 280 282 283 286 287 288 287 286 283 281 279 275 273 266 259 251
279 275 272 272 273 274 274 275 276 277 277 276 276 276 277 279 281 282 283 285 287 287 286 285 283 280 278 276 274 269 262 256
281 278 276 275 275 275 275 274 274 276 276 276 277 277 278 278 280 282 282 284 285 285 284 282 281 279 278 277 273 269 263 257
280 280 279 278 278 277 277 276 275 277 276 276 276 277 278 279 281 282 283 284 284 283 281 282 280 280 279 276 271 267 262 257
283 283 280 277 277 277 277 277 276 276 277 277 277 278 278 279 280 281 284 284 282 282 282 281 281 280 277 274 272 268 262 259
282 281 279 278 277 275 276 276 275 275 276 277 277 278 279 281 281 282 282 282 281 281 283 282 280 276 276 274 272 269 266 261
280 279 278 278 277 277 276 277 277 277 277 278 278 279 281 281 282 282 282 282 283 284 282 282 280 276 273 273 271 270 267 261
281 280 279 279 277 277 277 277 278 278 279 280 280 281 281 280 280 281 283 279 276 279 280 280 277 275 273 271 270 265 262 259
282 280 280 279 279 278 279 278 279 280 281 280 279 277 277 278 277 273 271 272 276 281 284 289 285 281 275 275 270 267 267 269
285 282 281 281 281 280 279 281 281 280 279 278 277 276 272 267 268 269 271 276 280 282 286 291 289 278 272 268 266 268 271 265
284 283 284 282 280 280 280 281 281 282 281 279 274 268 264 270 272 271 274 279 278 276 284 286 289 278 267 266 262 266 272 268
285 283 281 280 278 278 276 276 280 282 280 277 275 269 274 271 273 275 277 280 277 271 275 281 284 280 268 266 266 266 272 275
283 278 274 269 276 285 289 289 288 285 280 276 272 271 271 270 272 275 278 281 279 275 275 275 280 280 272 262 265 265 264 270
268 262 263 275 277 276 281 284 280 276 276 276 276 277 279 279 280 280 278 278 276 277 277 278 277 275 275 262 258 259 262 262
228 259 272 277 280 281 283 285 287 288 287 287 287 286 285 283 282 280 278 277 276 275 277 277 274 268 266 263 257 252 253 263